TimeEST,TemperatureF,Dew PointF,Humidity,Sea Level PressureIn,VisibilityMPH,Wind Direction,Wind SpeedMPH,Gust SpeedMPH,PrecipitationIn,Events,Conditions,WindDirDegrees,DateUTC
12:02 AM,30.2,28.4,93,30.07,10.0,Calm,Calm,-,N/A,,Mostly Cloudy,0,2008-01-01 05:02:00
12:44 AM,32.0,28.4,87,30.04,10.0,Calm,Calm,-,N/A,,Overcast,0,2008-01-01 05:44:00
1:02 AM,32.0,28.4,87,30.04,10.0,Calm,Calm,-,N/A,,Overcast,0,2008-01-01 06:02:00
1:44 AM,33.8,28.4,81,30.03,10.0,Calm,Calm,-,N/A,,Overcast,0,2008-01-01 06:44:00
2:22 AM,33.8,30.2,87,30.01,10.0,ENE,4.6,-,N/A,,Overcast,70,2008-01-01 07:22:00
2:42 AM,35.6,30.2,81,30.01,10.0,Calm,Calm,-,N/A,,Overcast,0,2008-01-01 07:42:00
3:03 AM,35.6,30.2,81,30.01,10.0,Calm,Calm,-,N/A,,Overcast,0,2008-01-01 08:03:00
3:42 AM,35.6,30.2,81,30.00,10.0,WSW,4.6,-,N/A,,Overcast,250,2008-01-01 08:42:00
4:23 AM,35.6,32.0,87,30.00,10.0,Calm,Calm,-,N/A,,Overcast,0,2008-01-01 09:23:00
4:42 AM,35.6,32.0,87,30.00,10.0,Calm,Calm,-,N/A,,Overcast,0,2008-01-01 09:42:00
6:02 AM,42.8,24.8,49,30.04,10.0,North,10.4,-,N/A,,Scattered Clouds,350,2008-01-01 11:02:00
6:23 AM,41.0,23.0,49,30.05,10.0,North,9.2,16.1,N/A,,Clear,350,2008-01-01 11:23:00
6:42 AM,39.2,21.2,49,30.06,10.0,NW,6.9,26.5,N/A,,Clear,310,2008-01-01 11:42:00
7:04 AM,39.2,17.6,42,30.08,10.0,North,5.8,-,N/A,,Clear,350,2008-01-01 12:04:00
7:24 AM,37.4,15.8,41,30.08,10.0,NNW,5.8,-,N/A,,Clear,340,2008-01-01 12:24:00
8:22 AM,35.6,17.6,48,30.09,10.0,NW,4.6,-,N/A,,Clear,320,2008-01-01 13:22:00
8:45 AM,37.4,17.6,45,30.09,10.0,NNW,4.6,-,N/A,,Clear,330,2008-01-01 13:45:00
9:04 AM,37.4,17.6,45,30.10,10.0,WNW,12.7,18.4,N/A,,Clear,290,2008-01-01 14:04:00
9:22 AM,37.4,15.8,41,30.10,10.0,NW,6.9,-,N/A,,Clear,310,2008-01-01 14:22:00
9:42 AM,37.4,17.6,45,30.11,10.0,NW,5.8,-,N/A,,Clear,320,2008-01-01 14:42:00
10:04 AM,37.4,15.8,41,30.12,10.0,North,13.8,20.7,N/A,,Scattered Clouds,350,2008-01-01 15:04:00
10:22 AM,37.4,15.8,41,30.12,10.0,North,18.4,26.5,N/A,,Scattered Clouds,350,2008-01-01 15:22:00
10:44 AM,37.4,15.8,41,30.12,10.0,North,6.9,19.6,N/A,,Scattered Clouds,350,2008-01-01 15:44:00
11:02 AM,39.2,15.8,39,30.12,10.0,North,16.1,21.9,N/A,,Scattered Clouds,360,2008-01-01 16:02:00
11:42 AM,37.4,15.8,41,30.14,10.0,North,15.0,23.0,N/A,,Scattered Clouds,350,2008-01-01 16:42:00
12:42 PM,39.2,15.8,39,30.13,10.0,NW,15.0,20.7,N/A,,Mostly Cloudy,320,2008-01-01 17:42:00
1:23 PM,41.0,12.2,31,30.12,10.0,North,9.2,16.1,N/A,,Mostly Cloudy,350,2008-01-01 18:23:00
1:44 PM,41.0,10.4,29,30.11,10.0,NW,5.8,19.6,N/A,,Mostly Cloudy,320,2008-01-01 18:44:00
2:02 PM,39.2,10.4,31,30.11,10.0,NW,10.4,20.7,N/A,,Scattered Clouds,320,2008-01-01 19:02:00
2:46 PM,41.0,8.6,26,30.10,10.0,NNW,12.7,18.4,N/A,,Scattered Clouds,340,2008-01-01 19:46:00
3:22 PM,39.2,8.6,28,30.12,10.0,NNW,8.1,16.1,N/A,,Scattered Clouds,330,2008-01-01 20:22:00
4:02 PM,39.2,10.4,31,30.12,10.0,NW,9.2,-,N/A,,Overcast,320,2008-01-01 21:02:00
4:43 PM,39.2,8.6,28,30.12,10.0,West,10.4,16.1,N/A,,Mostly Cloudy,280,2008-01-01 21:43:00
5:02 PM,37.4,8.6,30,30.14,10.0,WNW,6.9,-,N/A,,Mostly Cloudy,300,2008-01-01 22:02:00
5:22 PM,35.6,6.8,30,30.14,10.0,NW,11.5,18.4,N/A,,Mostly Cloudy,310,2008-01-01 22:22:00
5:42 PM,35.6,6.8,30,30.15,10.0,WNW,11.5,19.6,N/A,,Overcast,290,2008-01-01 22:42:00
6:25 PM,35.6,8.6,33,30.16,10.0,WNW,11.5,17.3,N/A,,Overcast,290,2008-01-01 23:25:00
7:22 PM,33.8,12.2,41,30.16,10.0,North,12.7,26.5,N/A,,Overcast,350,2008-01-02 00:22:00
7:41 PM,32.0,15.8,51,30.16,10.0,North,5.8,-,N/A,,Overcast,350,2008-01-02 00:41:00
8:01 PM,32.0,15.8,51,30.16,10.0,North,4.6,-,N/A,,Overcast,350,2008-01-02 01:01:00
8:43 PM,32.0,15.8,51,30.16,10.0,North,4.6,-,N/A,,Overcast,350,2008-01-02 01:43:00
10:04 PM,30.2,12.2,47,30.16,10.0,West,5.8,-,N/A,,Overcast,280,2008-01-02 03:04:00
10:43 PM,26.6,21.2,80,30.17,0.8,NW,8.1,18.4,N/A,Snow,Light Snow,310,2008-01-02 03:43:00
11:04 PM,26.6,19.4,74,30.17,1.0,WNW,3.5,-,N/A,Snow,Snow,300,2008-01-02 04:04:00
11:44 PM,26.6,17.6,69,30.16,1.8,NW,12.7,17.3,N/A,Snow,Light Snow,310,2008-01-02 04:44:00